Погода в Михайлове

Россия / Ивановская область     57°20′15″N   42°46′03″E
темп.,
°C
ветер,
м/с
пор.,
м/с
влажн.,
%
обл.,
%
осадки,
мм/ч
давл.,
гПа
погр.,
м
9 марта, вт
вт900:00−13сз379685 0.1 1006169
03:00−17ссз369680 0.1 1009117
06:00−19ссз369783 0.0 1010135
09:00−18с359477 0.0 1012250
12:00−14ссз358871 0.0 1014459
15:00−12ссз468886 0.1 1015639
18:00−15с3894100 0.1 1016307
21:00−18с4994100 0.1 1019393
10 марта, ср
ср1000:00−21с389795 0.0 1020231
03:00−25с399681 0.1 1022203
06:00−27с39963 0.0 1024198
09:00−25с47933 0.0 1026258
12:00−18ссз36860 0.0 1026453
15:00−15сз46820 0.0 1026668
18:00−17зсз369362 0.0 1026127
21:00−18сз389781 0.1 1027218
11 марта, чт
чт1100:00−22сз339824 0.0 102863
03:00−23сз339913 0.0 102960
06:00−23зсз34980 0.0 102982
09:00−17зсз47938 0.0 1030238
12:00−11зсз368917 0.0 1030337
15:00−9зсз368812 0.0 1029441
18:00−13з369548 0.0 1029103
21:00−16з349724 0.0 103073
12 марта, пт
пт1200:00−18зюз34970 0.0 103162
03:00−18зюз36980 0.0 1030106
06:00−19юз37973 0.0 1031137
09:00−15юз49891 0.0 1031281
12:00−10юз59760 0.0 1030531
15:00−8юз59740 0.0 1029675
18:00−11ююз410830 0.0 1028256
21:00−13ююз513850 0.0 1029396
13 марта, сб
сб1300:00−15ююз514850 0.0 1029378
03:00−15ююз414870 0.0 1028370
06:00−16ю514860 0.0 1027357
09:00−12ю613770 0.0 1025523
12:00−8ююз71377100 0.0 1024741
15:00−7ююз71391100 0.2 1022965
18:00−7ююз61293100 0.4 1020856
21:00−7ююз51292100 0.9 1020736